Location: Petržalka
(48.1109°N, 17.1116°E)
Time: 03:37:06
(UTC+01:00)

OTV 5 (USA 277) - Pass Details

Date: 31 October 2019
Orbit: 310 x 324 km, 54.5° (Epoch: 17 October)

Event Time Altitude Azimuth Distance (km) Brightness Sun altitude
Rises 17:13:40 0° 207° (SSW) 2,047 ? -7.0°
Reaches altitude 10° 17:15:51 10° 191° (SSW) 1,224 ? -7.3°
Maximum altitude 17:18:03 22° 137° (SE) 764 ? -7.7°
Enters shadow 17:20:03 11° 86° (E) 1,160 ? -8.0°
